Knox, IN

4:46 AM CDT on April 29, 2017 (GMT -0500)
Starke County

Weather History for KOXI - February, 2013

Change the Weather History Date:

Sunday, February 10, 2013

  Actual Average (KRCR) Record (KRCR)
Temperature  
Mean Temperature 41 °F -  
Max Temperature 50 °F 32 °F 44 °F (2017)
Min Temperature 32 °F 11 °F -5 °F (2014)
Degree Days  
Heating Degree Days 24    
Moisture  
Dew Point 36 °F    
Average Humidity 85    
Maximum Humidity 97    
Minimum Humidity 70    
Precipitation  
Precipitation 0.00 in - - ()
Sea Level Pressure  
Sea Level Pressure 29.84 in    
Wind  
Wind Speed 13 mph (SSE)    
Max Wind Speed 24 mph    
Max Gust Speed 33 mph    
Visibility 9 miles    
Events      
Averages and records for this station are not official NWS values.
T = Trace of Precipitation, MM = Missing Value Source: NWS Daily Summary

Daily Weather History Graph

Daily Weather History Graph

Search for Another Location

Airport or City:

Trip Planner

Search our weather history database for the weather conditions in past years. The results will help you decide how hot, cold, wet, or windy it might be!

Date:

Astronomy

Feb. 10, 2013 Rise Set
Actual Time 6:47 AM CST 5:14 PM CST
Civil Twilight 6:18 AM CST 5:43 PM CST
Nautical Twilight 5:46 AM CST 6:15 PM CST
Astronomical Twilight 5:14 AM CST 6:48 PM CST
Moon 6:36 AM CST (2/10) 6:06 PM CST (2/10)
Length of Visible Light 11h 24m
Length of Day
10h 27m
New Moon, 0% of the Moon is Illuminated
Feb 10
New Moon
Feb 17
First Quarter
Feb 25
Full
Mar 4
Last Quarter
Mar 11
New

Hourly Weather History & Observations

Time (CST) Temp. Windchill Dew Point Humidity Pressure Visibility Wind Dir Wind Speed Gust Speed Precip Events Conditions
12:15 AM 32.5 °F 24.2 °F 24.4 °F 72% 30.11 in 10.0 mi SSE 10.4 mph 16.1 mph N/A   Clear
12:35 AM 32.9 °F 24.1 °F 24.1 °F 70% 30.11 in 10.0 mi SSE 11.5 mph - N/A   Clear
12:55 AM 32.7 °F 24.5 °F 24.1 °F 71% 30.11 in 10.0 mi SSE 10.4 mph - N/A   Clear
1:15 AM 32.2 °F 23.2 °F 24.1 °F 72% 30.10 in 10.0 mi SSE 11.5 mph - N/A   Clear
1:35 AM 32.0 °F 24.2 °F 24.1 °F 73% 30.10 in 10.0 mi SSE 9.2 mph - N/A   Clear
1:55 AM 32.0 °F 24.2 °F 24.4 °F 74% 30.11 in 10.0 mi SSE 9.2 mph - N/A   Clear
2:15 AM 32.2 °F 24.4 °F 24.4 °F 73% 30.11 in 10.0 mi South 9.2 mph - N/A   Clear
2:35 AM 32.2 °F 24.4 °F 24.6 °F 74% 30.11 in 10.0 mi SSE 9.2 mph - N/A   Clear
2:55 AM 32.2 °F 24.4 °F 24.8 °F 74% 30.10 in 10.0 mi SSE 9.2 mph - N/A   Clear
3:15 AM 32.2 °F 23.2 °F 25.2 °F 75% 30.08 in 10.0 mi SSE 11.5 mph - N/A   Clear
3:35 AM 32.2 °F 23.2 °F 25.3 °F 76% 30.08 in 10.0 mi South 11.5 mph - N/A   Clear
3:55 AM 32.5 °F 24.2 °F 25.3 °F 75% 30.07 in 10.0 mi SSE 10.4 mph - N/A   Clear
4:15 AM 33.1 °F 24.4 °F 25.3 °F 73% 30.06 in 10.0 mi SSE 11.5 mph - N/A   Mostly Cloudy
4:35 AM 33.1 °F 23.9 °F 27.0 °F 78% 30.05 in 10.0 mi SSE 12.7 mph - N/A   Overcast
4:55 AM 32.9 °F 23.7 °F 28.4 °F 84% 30.04 in 10.0 mi SSE 12.7 mph - N/A   Overcast
5:15 AM 33.3 °F 24.6 °F 28.9 °F 84% 30.03 in 10.0 mi SSE 11.5 mph 17.3 mph N/A   Overcast
5:35 AM 33.6 °F 26.8 °F 29.7 °F 85% 30.04 in 10.0 mi South 8.1 mph - N/A   Overcast
5:55 AM 33.8 °F 27.0 °F 30.0 °F 86% 30.04 in 10.0 mi SSE 8.1 mph - N/A   Overcast
6:15 AM 33.8 °F 25.8 °F 30.0 °F 86% 30.03 in 10.0 mi SE 10.4 mph - N/A   Overcast
6:35 AM 33.8 °F 26.4 °F 30.0 °F 86% 30.02 in 10.0 mi SSE 9.2 mph - N/A   Overcast
6:55 AM 33.8 °F 26.4 °F 30.0 °F 86% 30.01 in 10.0 mi SE 9.2 mph - N/A   Overcast
7:15 AM 34.0 °F 25.5 °F 30.2 °F 86% 29.98 in 10.0 mi SE 11.5 mph - N/A   Overcast
7:35 AM 34.2 °F 27.5 °F 30.6 °F 87% 29.98 in 10.0 mi ESE 8.1 mph - N/A   Overcast
7:55 AM 34.5 °F 28.6 °F 31.1 °F 87% 29.98 in 10.0 mi SE 6.9 mph - N/A   Overcast
8:15 AM 34.7 °F 25.9 °F 31.3 °F 87% 29.98 in 10.0 mi SSE 12.7 mph - N/A   Overcast
8:35 AM 35.1 °F 26.4 °F 31.6 °F 87% 29.98 in 10.0 mi SSE 12.7 mph 20.7 mph N/A   Overcast
8:55 AM 35.4 °F 26.4 °F 31.3 °F 85% 29.98 in 10.0 mi SSE 13.8 mph - N/A   Overcast
9:15 AM 36.0 °F 27.1 °F 30.6 °F 81% 29.98 in 10.0 mi South 13.8 mph 18.4 mph N/A   Overcast
9:35 AM 36.5 °F 27.8 °F 30.4 °F 78% 29.96 in 10.0 mi SSE 13.8 mph - N/A   Overcast
9:55 AM 37.2 °F 29.1 °F 31.3 °F 79% 29.94 in 10.0 mi SSE 12.7 mph 19.6 mph N/A   Overcast
10:15 AM 36.9 °F 27.8 °F 32.0 °F 83% 29.93 in 7.0 mi SSE 15.0 mph - N/A   Overcast
10:35 AM 37.0 °F 28.5 °F 32.4 °F 83% 29.90 in 10.0 mi SE 13.8 mph 18.4 mph N/A   Overcast
10:55 AM 38.1 °F 29.5 °F 33.3 °F 83% 29.89 in 10.0 mi SSE 15.0 mph 18.4 mph N/A   Overcast
11:15 AM 39.7 °F 31.2 °F 34.0 °F 80% 29.88 in 10.0 mi SSE 16.1 mph 21.9 mph N/A   Overcast
11:35 AM 40.5 °F 32.8 °F 34.3 °F 79% 29.85 in 10.0 mi SSE 13.8 mph 19.6 mph N/A   Overcast
11:55 AM 41.4 °F 33.3 °F 34.5 °F 77% 29.84 in 10.0 mi SSE 16.1 mph 31.1 mph N/A   Overcast
12:15 PM 42.1 °F 33.9 °F 34.3 °F 74% 29.83 in 10.0 mi SSE 17.3 mph - N/A   Overcast
12:35 PM 42.6 °F 34.3 °F 34.5 °F 73% 29.82 in 10.0 mi SSE 18.4 mph 26.5 mph N/A   Mostly Cloudy
12:55 PM 42.8 °F 34.3 °F 34.5 °F 73% 29.79 in 10.0 mi SSE 19.6 mph 28.8 mph N/A   Mostly Cloudy
1:15 PM 41.9 °F 33.1 °F 35.4 °F 78% 29.77 in 10.0 mi SSE 19.6 mph 26.5 mph N/A   Overcast
1:35 PM 41.4 °F 32.4 °F 36.3 °F 82% 29.77 in 7.0 mi SSE 19.6 mph 24.2 mph N/A   Overcast
1:55 PM 41.2 °F 32.4 °F 37.2 °F 86% 29.77 in 3.0 mi SSE 18.4 mph - N/A   Overcast
2:15 PM 40.1 °F 31.3 °F 38.7 °F 95% 29.74 in 3.0 mi SSE 17.3 mph 25.3 mph N/A   Overcast
2:35 PM 40.5 °F 30.9 °F 39.4 °F 96% 29.70 in 3.0 mi SE 20.7 mph 26.5 mph N/A   Overcast
2:55 PM 41.4 °F 31.6 °F 39.9 °F 95% 29.68 in 10.0 mi SSE 23.0 mph 27.6 mph N/A   Overcast
3:15 PM 42.4 °F 33.8 °F 40.3 °F 92% 29.68 in 10.0 mi SSE 19.6 mph 24.2 mph N/A   Overcast
3:35 PM 43.2 °F 34.2 °F 40.8 °F 91% 29.67 in 10.0 mi SSE 21.9 mph 32.2 mph N/A   Overcast
3:55 PM 43.9 °F 35.0 °F 41.2 °F 90% 29.66 in 10.0 mi SSE 23.0 mph 29.9 mph N/A   Overcast
4:15 PM 44.1 °F 35.2 °F 41.4 °F 90% 29.65 in 10.0 mi SSE 23.0 mph 27.6 mph N/A   Overcast
4:35 PM 43.7 °F 35.7 °F 41.5 °F 92% 29.64 in 4.0 mi SSE 18.4 mph 25.3 mph N/A   Overcast
4:55 PM 43.7 °F 35.4 °F 41.7 °F 93% 29.65 in 10.0 mi SSE 19.6 mph 26.5 mph N/A   Overcast
5:15 PM 44.2 °F 36.7 °F 41.5 °F 90% 29.64 in 10.0 mi SSE 17.3 mph 27.6 mph N/A   Overcast
5:35 PM 44.8 °F 37.1 °F 41.9 °F 90% 29.63 in 10.0 mi South 18.4 mph 25.3 mph N/A   Overcast
5:55 PM 45.3 °F 37.6 °F 42.1 °F 88% 29.64 in 10.0 mi South 19.6 mph 26.5 mph N/A   Overcast
6:15 PM 45.3 °F 37.8 °F 43.0 °F 92% 29.64 in 5.0 mi South 18.4 mph 26.5 mph N/A   Overcast
6:35 PM 45.0 °F 37.6 °F 43.7 °F 95% 29.64 in 7.0 mi South 17.3 mph 24.2 mph N/A   Overcast
6:55 PM 45.3 °F 37.8 °F 44.2 °F 96% 29.64 in 7.0 mi South 18.4 mph 25.3 mph N/A   Overcast
7:15 PM 45.5 °F 38.6 °F 44.6 °F 97% 29.64 in 10.0 mi South 16.1 mph 24.2 mph N/A   Overcast
7:35 PM 45.5 °F 37.6 °F 44.8 °F 97% 29.62 in 10.0 mi South 20.7 mph 25.3 mph N/A   Overcast
7:55 PM 46.0 °F 38.5 °F 45.3 °F 97% 29.61 in 10.0 mi South 19.6 mph 24.2 mph N/A   Overcast
8:15 PM 46.8 °F - 46.0 °F 97% 29.61 in 10.0 mi South 18.4 mph 23.0 mph N/A   Overcast
8:35 PM 47.3 °F - 46.4 °F 97% 29.61 in 10.0 mi South 18.4 mph 25.3 mph N/A   Overcast
8:55 PM 47.7 °F - 46.6 °F 96% 29.60 in 10.0 mi South 18.4 mph 23.0 mph N/A   Overcast
9:15 PM 48.2 °F - 46.8 °F 95% 29.60 in 10.0 mi South 17.3 mph 24.2 mph N/A   Overcast
9:35 PM 48.4 °F - 47.1 °F 95% 29.59 in 10.0 mi South 19.6 mph 25.3 mph N/A   Overcast
9:55 PM 48.9 °F - 47.3 °F 94% 29.58 in 10.0 mi SSW 18.4 mph 27.6 mph N/A   Overcast
10:15 PM 49.5 °F - 47.5 °F 93% 29.58 in 10.0 mi South 20.7 mph 27.6 mph N/A   Overcast
10:35 PM 49.8 °F - 47.7 °F 92% 29.58 in 10.0 mi SSW 19.6 mph 26.5 mph N/A   Overcast
10:55 PM 50.0 °F - 47.7 °F 92% 29.57 in 10.0 mi SSW 24.2 mph 32.2 mph N/A   Overcast
11:15 PM 50.0 °F - 47.7 °F 92% 29.57 in 10.0 mi SSW 20.7 mph 31.1 mph N/A   Overcast
11:35 PM 49.6 °F - 47.5 °F 92% 29.58 in 10.0 mi SSW 18.4 mph 26.5 mph N/A   Mostly Cloudy
11:55 PM 49.3 °F - 47.3 °F 93% 29.57 in 10.0 mi SSW 18.4 mph 33.4 mph N/A   Mostly Cloudy